sat.trackr.live / text

‹ back to catalog

STARLINK-5769

NORAD 55585 · 2023-020S

PAYLOAD ACTIVE UNKNOWN

§ Identity

Operator
Country
US
Launch date
2023-02-12
Launch site
AFETR
Launch vehicle
Mass (kg)
RCS (m²)

Purposes: comms

External: N2YO · Heavens-Above · Gunter

§ Orbital elements

Epoch: 2026-09-20T15:47:36.504960Z

Period
94.27 min
Inclination
43.0037°
Eccentricity
0.0001704
Mean motion
15.27603034 rev/d
Perigee alt
481.8 km
Apogee alt
484.1 km
Semi-major
6,861.1 km
B*
1.4920e-4
RAAN
333.4713°
Arg perigee
281.0332°
Mean anomaly
79.0328°
Rev number
19,885

§ Raw data

STARLINK-57691 55585U 23020S   26263.65806140  .00003848  00000+0  14920-3 0  99952 55585  43.0037 333.4713 0001704 281.0332  79.0328 15.27603034198853

JSON: /api/v1/satellites/55585 · /tle

For live sub-satellite position, see the globe view (requires WebGL).

§ Visibility from observer

Set your observer location to see the next 7 days of passes ≥ 10°. The values pass through the URL so the page stays shareable.

No JS? Fill the form by hand. The geolocation button needs JavaScript.